Hourly Data Report for May 13, 2019

MIRAMICHI RCS
NEW BRUNSWICK
Current Station Operator: ECCC - MSC

47°00'34.000" N
65°27'54.000" W
33.00 m
8100989
71744
ACQ

Download Data

Hourly Data (May 2019)
Hourly Data Report for May 13, 2019
TIME
LST
Temp Definition
°C
Dew Point Definition
°C
Rel Hum Definition
%
Precip. Amount Definition
mm

Wind Dir Definition
10's deg

Wind Spd Definition
km/h
Visibility Definition
km
Stn Press Definition
kPa
Hmdx Definition


Wind Chill Definition


Weather Definition


00:00 1.4 -0.2 89 0.0 0 1   101.53     LegendNANA
01:00 -0.3 -1.5 92 0.0 30 3   101.54   -1 LegendNANA
02:00 0.3 -0.5 95 0.0 34 5   101.54     LegendNANA
03:00 -0.9 -2.0 93 0.0 34 2   101.55   -2 LegendNANA
04:00 -1.5 -2.5 93 0.0 1 2   101.53   -2 LegendNANA
05:00 -1.8 -2.9 92 0.0 35 1   101.57   -2 LegendNANA
06:00 0.1 -1.6 88 0.0 6 2   101.60     LegendNANA
07:00 3.4 -0.1 78 0.0 5 13   101.63     LegendNANA
08:00 4.6 -0.7 68 0.0 7 16   101.66     LegendNANA
09:00 6.3 -1.2 59 0.0 9 19   101.67     LegendNANA
10:00 6.7 -0.5 60 0.0 7 18   101.67     LegendNANA
11:00 7.8 -0.3 56 0.0 6 16   101.67     LegendNANA
12:00 9.0 0.8 56 0.0 7 14   101.62     LegendNANA
13:00 9.8 -0.3 49 0.0 8 20   101.57     LegendNANA
14:00 9.7 0.5 52 0.0 6 21   101.55     LegendNANA
15:00 9.5 0.3 52 0.0 7 21   101.53     LegendNANA
16:00 9.3 0.6 55 0.0 6 21   101.50     LegendNANA
17:00 8.9 0.8 57 0.0 6 20   101.44     LegendNANA
18:00 7.6 0.0 58 0.0 6 21   101.47     LegendNANA
19:00 6.9 0.1 62 0.0 6 14   101.51     LegendNANA
20:00 5.3 -0.1 68 0.0 7 9   101.52     LegendNANA
21:00 3.2 -0.9 74 0.0 9 9   101.58     LegendNANA
22:00 3.3 -0.7 75 0.0 5 7   101.57     LegendNANA
23:00 2.5 -0.5 80 0.0 5 6   101.54     LegendNANA

Notes on Data Quality.

Legend

  • E = Estimated
  • M = Missing
  • NA = Not Available*
  • [empty] = Indicates an unobserved value
Date modified: